DLH1390 EDDH-EDDC

Flight info

Callsign DLH1390
Flight time 0h 50m
Altitude 27000
Route RAMA6C RAMAR Z998 OSKAN OSKA4B
Aircraft A359/H-V/N

Departure

Time 2026-04-21 12:56
Airport Hamburg Helmut Schmidt Airport (EDDH)

Arrival

Time 2026-04-21 13:46
Airport Dresden Airport (EDDC)
Time Latitude Longitude Altitude Speed Heading
2026-04-21 12:46 53.63194 10.00366 48 ft 0 kts 86°
2026-04-21 12:49 53.63193 10.00343 47 ft 2 kts 86°
2026-04-21 12:49 53.63193 10.00317 46 ft 2 kts 87°
2026-04-21 12:49 53.63193 10.00291 45 ft 2 kts 105°
2026-04-21 12:49 53.63199 10.00266 44 ft 2 kts 119°
2026-04-21 12:50 53.63207 10.00243 43 ft 2 kts 134°
2026-04-21 12:50 53.63219 10.00226 43 ft 2 kts 148°
2026-04-21 12:50 53.63233 10.00214 43 ft 2 kts 163°
2026-04-21 12:50 53.63247 10.00208 43 ft 0 kts 175°
2026-04-21 12:51 53.63252 10.00207 43 ft 0 kts 176°
2026-04-21 12:52 53.63241 10.00208 43 ft 5 kts 176°
2026-04-21 12:52 53.63176 10.00217 42 ft 12 kts 176°
2026-04-21 12:52 53.63062 10.00209 42 ft 18 kts 204°
2026-04-21 12:52 53.62929 10.00072 41 ft 22 kts 209°
2026-04-21 12:53 53.62825 9.99995 40 ft 4 kts 223°
2026-04-21 12:53 53.62823 9.99991 40 ft 0 kts 222°
2026-04-21 12:53 53.62826 9.99961 39 ft 0 kts 310°
2026-04-21 12:53 53.62826 9.99954 39 ft 0 kts 278°
2026-04-21 12:54 53.62826 9.99951 39 ft 0 kts 270°
2026-04-21 12:54 53.62823 9.99924 38 ft 3 kts 254°
2026-04-21 12:54 53.62813 9.99868 38 ft 5 kts 253°
2026-04-21 12:54 53.62828 9.99797 36 ft 8 kts 301°
2026-04-21 12:55 53.62879 9.99736 35 ft 16 kts 332°
2026-04-21 12:55 53.63245 9.99432 36 ft 97 kts 333°
2026-04-21 12:55 53.64071 9.98737 51 ft 161 kts 334°
2026-04-21 12:55 53.65196 9.97714 442 ft 192 kts 338°
2026-04-21 12:56 53.66462 9.96659 1437 ft 205 kts 338°
2026-04-21 12:56 53.67756 9.95544 2916 ft 201 kts 339°
2026-04-21 12:56 53.69094 9.94682 3905 ft 212 kts 359°
2026-04-21 12:56 53.70537 9.94683 5161 ft 215 kts
2026-04-21 12:57 53.72018 9.94689 6490 ft 217 kts
2026-04-21 12:57 53.73485 9.95508 7840 ft 214 kts 41°
2026-04-21 12:57 53.74418 9.97706 9004 ft 228 kts 66°
2026-04-21 12:57 53.75152 10.00381 10167 ft 248 kts 64°
2026-04-21 12:58 53.75974 10.03250 11377 ft 268 kts 64°
2026-04-21 12:58 53.76891 10.06433 12557 ft 291 kts 64°
2026-04-21 12:58 53.77871 10.09833 13742 ft 315 kts 64°
2026-04-21 12:58 53.78894 10.13388 15257 ft 327 kts 64°
2026-04-21 12:59 53.79989 10.17202 15349 ft 375 kts 64°
2026-04-21 12:59 53.81173 10.21337 15704 ft 377 kts 64°
2026-04-21 12:59 53.82352 10.25489 15271 ft 380 kts 64°
2026-04-21 12:59 53.83530 10.29659 14957 ft 379 kts 65°
2026-04-21 13:00 53.84349 10.33987 15368 ft 360 kts 84°
2026-04-21 13:00 53.84236 10.38121 16622 ft 345 kts 95°
2026-04-21 13:00 53.83817 10.42056 17892 ft 336 kts 98°
2026-04-21 13:00 53.83299 10.46080 18630 ft 342 kts 99°
2026-04-21 13:01 53.82756 10.50100 19421 ft 345 kts 99°
2026-04-21 13:01 53.82198 10.54193 20282 ft 345 kts 100°
2026-04-21 13:01 53.81626 10.58378 20989 ft 350 kts 99°
2026-04-21 13:01 53.81053 10.62543 21754 ft 351 kts 99°
2026-04-21 13:02 53.80488 10.66649 22476 ft 353 kts 101°
2026-04-21 13:02 53.79702 10.70610 23050 ft 363 kts 114°
2026-04-21 13:02 53.76886 10.78237 24466 ft 368 kts 118°
2026-04-21 13:03 53.75482 10.82025 24943 ft 372 kts 118°
2026-04-21 13:03 53.74148 10.85610 25267 ft 350 kts 117°
2026-04-21 13:03 53.72877 10.89024 25503 ft 326 kts 117°
2026-04-21 13:03 53.71671 10.92247 25601 ft 307 kts 118°
2026-04-21 13:04 53.70078 10.94895 25531 ft 306 kts 140°
2026-04-21 13:04 53.68154 10.96852 25409 ft 295 kts 140°
2026-04-21 13:04 53.66325 10.98731 25247 ft 286 kts 140°
2026-04-21 13:04 53.64532 11.00574 24138 ft 312 kts 141°
2026-04-21 13:05 53.62411 11.02783 21548 ft 392 kts 143°
2026-04-21 13:05 53.59790 11.05434 22036 ft 397 kts 143°
2026-04-21 13:05 53.57371 11.07870 23567 ft 379 kts 143°
2026-04-21 13:05 53.54806 11.10491 23317 ft 407 kts 143°
2026-04-21 13:06 53.52185 11.13158 23315 ft 425 kts 143°
2026-04-21 13:06 53.49430 11.15947 23408 ft 435 kts 143°
2026-04-21 13:06 53.46750 11.18653 23255 ft 427 kts 143°
2026-04-21 13:06 53.44107 11.21323 23406 ft 423 kts 143°
2026-04-21 13:07 53.41397 11.24060 23298 ft 426 kts 143°
2026-04-21 13:07 53.38860 11.26617 23325 ft 422 kts 143°
2026-04-21 13:07 53.36305 11.29187 23370 ft 424 kts 143°
2026-04-21 13:07 53.33733 11.31772 23272 ft 423 kts 143°
2026-04-21 13:08 53.31161 11.34353 23355 ft 422 kts 143°
2026-04-21 13:08 53.28646 11.36874 23314 ft 423 kts 143°
2026-04-21 13:08 53.26152 11.39655 23281 ft 416 kts 134°
2026-04-21 13:08 53.23930 11.43060 23366 ft 416 kts 132°
2026-04-21 13:09 53.21800 11.46333 23294 ft 417 kts 132°
2026-04-21 13:09 53.19556 11.49778 23302 ft 415 kts 132°
2026-04-21 13:09 53.17426 11.53041 23339 ft 417 kts 132°
2026-04-21 13:09 53.15288 11.56313 23270 ft 416 kts 132°
2026-04-21 13:10 53.13151 11.59582 23321 ft 415 kts 132°
2026-04-21 13:10 53.10841 11.63115 23316 ft 417 kts 132°
2026-04-21 13:10 53.08689 11.66396 23283 ft 416 kts 133°
2026-04-21 13:10 53.06559 11.69646 23337 ft 417 kts 133°
2026-04-21 13:11 53.04424 11.72895 23295 ft 417 kts 133°
2026-04-21 13:11 53.02269 11.76169 23288 ft 416 kts 133°
2026-04-21 13:11 52.99932 11.79716 23334 ft 416 kts 133°
2026-04-21 13:11 52.97939 11.83230 23269 ft 410 kts 123°
2026-04-21 13:12 52.96220 11.87128 23315 ft 409 kts 122°
2026-04-21 13:12 52.94461 11.91040 23309 ft 411 kts 122°
2026-04-21 13:12 52.92658 11.94999 23272 ft 409 kts 123°
2026-04-21 13:12 52.90872 11.98904 23328 ft 410 kts 123°
2026-04-21 13:13 52.89083 12.02803 23278 ft 411 kts 122°
2026-04-21 13:13 52.87323 12.06631 23276 ft 410 kts 122°
2026-04-21 13:13 52.85486 12.10633 23310 ft 411 kts 122°
2026-04-21 13:13 52.83598 12.14734 23263 ft 411 kts 122°
2026-04-21 13:14 52.81768 12.18703 23293 ft 410 kts 122°
2026-04-21 13:14 52.79991 12.22556 23289 ft 412 kts 122°
2026-04-21 13:14 52.78135 12.26570 23256 ft 411 kts 122°
2026-04-21 13:14 52.76324 12.30484 23307 ft 411 kts 122°
2026-04-21 13:15 52.74469 12.34485 23269 ft 412 kts 123°
2026-04-21 13:15 52.72635 12.38433 23255 ft 414 kts 123°
2026-04-21 13:15 52.70734 12.42368 23304 ft 418 kts 127°
2026-04-21 13:15 52.68331 12.45477 23218 ft 429 kts 144°
2026-04-21 13:16 52.65622 12.47947 23320 ft 429 kts 144°
2026-04-21 13:16 52.62918 12.50537 23262 ft 430 kts 144°
2026-04-21 13:16 52.60192 12.53196 23251 ft 428 kts 143°
2026-04-21 13:16 52.57545 12.55795 23314 ft 430 kts 143°
2026-04-21 13:17 52.54980 12.58316 23218 ft 429 kts 143°
2026-04-21 13:17 52.52417 12.60831 23287 ft 429 kts 143°
2026-04-21 13:17 52.49843 12.63358 23280 ft 430 kts 143°
2026-04-21 13:17 52.47272 12.65875 23224 ft 430 kts 144°
2026-04-21 13:18 52.44710 12.68382 23313 ft 430 kts 144°
2026-04-21 13:18 52.42114 12.70919 23253 ft 431 kts 144°
2026-04-21 13:18 52.39458 12.73509 23256 ft 430 kts 144°
2026-04-21 13:18 52.36676 12.76220 23298 ft 431 kts 144°
2026-04-21 13:19 52.33889 12.78930 23225 ft 430 kts 144°
2026-04-21 13:19 52.31307 12.81439 23295 ft 430 kts 144°
2026-04-21 13:19 52.28707 12.83961 23261 ft 431 kts 144°
2026-04-21 13:19 52.26139 12.86448 23232 ft 429 kts 144°
2026-04-21 13:20 52.23585 12.88928 23300 ft 431 kts 144°
2026-04-21 13:20 52.20999 12.91445 23242 ft 430 kts 144°
2026-04-21 13:20 52.18212 12.94151 23257 ft 429 kts 144°
2026-04-21 13:20 52.15454 12.96826 23287 ft 430 kts 144°
2026-04-21 13:21 52.12753 12.99444 23222 ft 431 kts 144°
2026-04-21 13:21 52.09954 13.02150 23285 ft 429 kts 144°
2026-04-21 13:21 52.07268 13.04743 23246 ft 431 kts 144°
2026-04-21 13:21 52.04616 13.07302 23234 ft 429 kts 144°
2026-04-21 13:22 52.01961 13.09859 23290 ft 430 kts 144°
2026-04-21 13:22 51.99307 13.12413 23218 ft 430 kts 144°
2026-04-21 13:22 51.96697 13.14920 23257 ft 430 kts 144°
2026-04-21 13:22 51.94099 13.17411 23264 ft 433 kts 144°
2026-04-21 13:23 51.91445 13.19953 23214 ft 432 kts 144°
2026-04-21 13:23 51.88817 13.22466 23274 ft 426 kts 144°
2026-04-21 13:23 51.86282 13.24885 22514 ft 422 kts 144°
2026-04-21 13:23 51.83739 13.27317 21289 ft 425 kts 144°
2026-04-21 13:24 51.81195 13.29733 20542 ft 417 kts 145°
2026-04-21 13:24 51.78715 13.32085 19636 ft 413 kts 145°
2026-04-21 13:24 51.76260 13.34413 18723 ft 411 kts 145°
2026-04-21 13:24 51.73790 13.36749 17928 ft 405 kts 145°
2026-04-21 13:25 51.71365 13.39041 17097 ft 402 kts 145°
2026-04-21 13:25 51.68978 13.41293 16276 ft 398 kts 146°
2026-04-21 13:25 51.66559 13.43574 15485 ft 393 kts 146°
2026-04-21 13:25 51.64134 13.45858 14667 ft 390 kts 146°
2026-04-21 13:26 51.61764 13.48086 13867 ft 386 kts 146°
2026-04-21 13:26 51.59375 13.50329 13207 ft 386 kts 146°
2026-04-21 13:26 51.56996 13.52563 13297 ft 381 kts 146°
2026-04-21 13:26 51.54638 13.54772 13246 ft 384 kts 146°
2026-04-21 13:27 51.52373 13.56891 12797 ft 375 kts 146°
2026-04-21 13:27 51.50108 13.59009 11899 ft 377 kts 146°
2026-04-21 13:27 51.47790 13.61167 11187 ft 371 kts 147°
2026-04-21 13:27 51.45294 13.62730 10445 ft 373 kts 165°
2026-04-21 13:28 51.42607 13.62835 9706 ft 375 kts 184°
2026-04-21 13:28 51.39996 13.62320 9034 ft 368 kts 180°
2026-04-21 13:28 51.37341 13.62189 8268 ft 366 kts 179°
2026-04-21 13:28 51.34732 13.62027 7608 ft 361 kts 180°
2026-04-21 13:29 51.32124 13.61859 7259 ft 347 kts 180°
2026-04-21 13:29 51.29739 13.61699 7216 ft 307 kts 179°
2026-04-21 13:29 51.27660 13.61565 7102 ft 275 kts 179°
2026-04-21 13:29 51.25732 13.61443 6511 ft 269 kts 179°
2026-04-21 13:30 51.23730 13.61316 5775 ft 267 kts 179°
2026-04-21 13:30 51.21701 13.61185 5196 ft 267 kts 179°
2026-04-21 13:30 51.19828 13.61038 5261 ft 265 kts 184°
2026-04-21 13:30 51.18037 13.60069 5205 ft 270 kts 213°
2026-04-21 13:31 51.16631 13.58057 5243 ft 271 kts 225°
2026-04-21 13:31 51.15315 13.55897 5203 ft 274 kts 225°
2026-04-21 13:31 51.13988 13.53724 5224 ft 271 kts 225°
2026-04-21 13:31 51.12626 13.51492 5212 ft 269 kts 225°
2026-04-21 13:32 51.11249 13.49237 5214 ft 271 kts 225°
2026-04-21 13:32 51.09855 13.46948 5206 ft 271 kts 225°
2026-04-21 13:32 51.08512 13.44734 5206 ft 271 kts 225°
2026-04-21 13:32 51.07160 13.42506 5201 ft 271 kts 225°
2026-04-21 13:33 51.05779 13.40233 5200 ft 268 kts 225°
2026-04-21 13:33 51.04451 13.38050 5198 ft 258 kts 225°
2026-04-21 13:33 51.03173 13.35955 5189 ft 249 kts 225°
2026-04-21 13:33 51.01932 13.33923 5194 ft 241 kts 225°
2026-04-21 13:34 51.00625 13.31785 5233 ft 267 kts 225°
2026-04-21 13:34 50.99242 13.29525 5192 ft 272 kts 225°
2026-04-21 13:34 50.97877 13.27296 5206 ft 273 kts 225°
2026-04-21 13:34 50.96515 13.25072 5194 ft 271 kts 225°
2026-04-21 13:35 50.95124 13.22800 5201 ft 270 kts 225°
2026-04-21 13:35 50.93750 13.20550 5196 ft 270 kts 225°
2026-04-21 13:35 50.92282 13.18616 5182 ft 271 kts 205°
2026-04-21 13:35 50.90406 13.17911 5208 ft 264 kts 176°
2026-04-21 13:36 50.88544 13.17949 5188 ft 266 kts 179°
2026-04-21 13:36 50.86701 13.17904 5175 ft 264 kts 170°
2026-04-21 13:36 50.84917 13.18788 5189 ft 257 kts 143°
2026-04-21 13:36 50.83663 13.20881 5191 ft 248 kts 112°
2026-04-21 13:37 50.83207 13.23589 5196 ft 242 kts 89°
2026-04-21 13:37 50.83467 13.26261 5195 ft 240 kts 72°
2026-04-21 13:37 50.83947 13.28823 5185 ft 239 kts 71°
2026-04-21 13:37 50.84591 13.31310 5176 ft 237 kts 54°
2026-04-21 13:38 50.85708 13.33363 5194 ft 238 kts 46°
2026-04-21 13:38 50.86919 13.35393 5179 ft 239 kts 46°
2026-04-21 13:38 50.88073 13.37326 5192 ft 239 kts 46°
2026-04-21 13:38 50.89253 13.39292 5183 ft 233 kts 46°
2026-04-21 13:39 50.90380 13.41171 5180 ft 229 kts 46°
2026-04-21 13:39 50.91484 13.43014 5191 ft 229 kts 46°
2026-04-21 13:39 50.92600 13.44878 5189 ft 228 kts 46°
2026-04-21 13:39 50.93724 13.46762 5187 ft 228 kts 47°
2026-04-21 13:40 50.94768 13.48677 5189 ft 228 kts 49°
2026-04-21 13:40 50.95821 13.50637 5190 ft 229 kts 49°
2026-04-21 13:40 50.96839 13.52682 5073 ft 231 kts 56°
2026-04-21 13:40 50.97727 13.54843 4699 ft 228 kts 56°
2026-04-21 13:41 50.98694 13.56878 4364 ft 209 kts 41°
2026-04-21 13:41 50.99819 13.58276 4071 ft 191 kts 37°
2026-04-21 13:41 51.00845 13.59552 3826 ft 172 kts 41°
2026-04-21 13:41 51.01754 13.60799 3611 ft 153 kts 40°
2026-04-21 13:42 51.02532 13.61862 3378 ft 139 kts 40°
2026-04-21 13:42 51.03252 13.62845 3187 ft 132 kts 40°
2026-04-21 13:42 51.03950 13.63799 2994 ft 130 kts 41°
2026-04-21 13:42 51.04652 13.64758 2814 ft 131 kts 41°
2026-04-21 13:43 51.05353 13.65734 2635 ft 132 kts 42°
2026-04-21 13:43 51.06057 13.66711 2450 ft 131 kts 42°
2026-04-21 13:43 51.06749 13.67658 2306 ft 130 kts 39°
2026-04-21 13:43 51.07429 13.68590 2093 ft 125 kts 41°
2026-04-21 13:44 51.08090 13.69500 1914 ft 125 kts 40°
2026-04-21 13:44 51.08764 13.70410 1747 ft 127 kts 40°
2026-04-21 13:44 51.09441 13.71345 1566 ft 126 kts 38°
2026-04-21 13:44 51.10107 13.72248 1395 ft 129 kts 40°
2026-04-21 13:45 51.10801 13.73185 1223 ft 127 kts 43°
2026-04-21 13:45 51.11475 13.74131 1061 ft 127 kts 41°
2026-04-21 13:45 51.12186 13.75091 836 ft 127 kts 41°
2026-04-21 13:45 51.12872 13.76024 751 ft 111 kts 40°
2026-04-21 13:46 51.13309 13.76632 736 ft 49 kts 43°
2026-04-21 13:46 51.13358 13.76751 735 ft 5 kts 107°
2026-04-21 13:46 51.13329 13.76815 736 ft 6 kts 129°
2026-04-21 13:46 51.13304 13.76861 737 ft 3 kts 131°
2026-04-21 13:47 51.13283 13.76899 739 ft 4 kts 132°
2026-04-21 13:47 51.13258 13.76943 740 ft 6 kts 132°
2026-04-21 13:47 51.13217 13.76961 743 ft 6 kts 195°
2026-04-21 13:47 51.13169 13.76910 744 ft 10 kts 219°
2026-04-21 13:48 51.13101 13.76818 745 ft 14 kts 221°
2026-04-21 13:48 51.13022 13.76709 748 ft 14 kts 221°
2026-04-21 13:48 51.12946 13.76603 749 ft 13 kts 221°
2026-04-21 13:48 51.12874 13.76506 751 ft 10 kts 220°
2026-04-21 13:49 51.12820 13.76431 753 ft 9 kts 221°
2026-04-21 13:49 51.12769 13.76361 755 ft 9 kts 221°
2026-04-21 13:49 51.12719 13.76290 757 ft 10 kts 221°
2026-04-21 13:49 51.12654 13.76202 757 ft 13 kts 221°
2026-04-21 13:50 51.12578 13.76098 759 ft 13 kts 220°
2026-04-21 13:50 51.12499 13.75990 759 ft 15 kts 220°
2026-04-21 13:50 51.12476 13.75967 759 ft 1 kts 183°
2026-04-21 13:50 51.12470 13.75976 760 ft 1 kts 124°
2026-04-21 13:51 51.12468 13.76003 760 ft 4 kts 96°
2026-04-21 13:51 51.12465 13.76058 760 ft 4 kts 95°
2026-04-21 13:51 51.12465 13.76086 761 ft 1 kts 96°
2026-04-21 13:51 51.12461 13.76100 761 ft 0 kts 111°